When you browse on this site, cookies collect data to enhance your experience and personalize the content and advertising you see.
Visit our Privacy Policy to learn more. By continuing to use the site, you agree to this use of cookies and data.
  • En España
  • Lista de países
  • Para 7 días
  • Temperatura del agua
  • El tiempo en el mapa
  • Informadores
  • user-avatar
    Iniciar sesión

    Tiempo cada hora Malanje

    Hoy, 30 Mayo, Sábado

    Tiempo Temperatura Precipitaciones Viento Presión Humedad
    00:00 +19°C° 0 mm 1 mps 665 mmHg 51%
    01:00 +18°C° 0 mm 2 mps 665 mmHg 54%
    02:00 +17°C° 0 mm 2 mps 665 mmHg 55%
    03:00 +17°C° 0 mm 2 mps 664 mmHg 55%
    04:00 +16°C° 0 mm 2 mps 664 mmHg 56%
    05:00 +16°C° 0 mm 2 mps 665 mmHg 56%
    06:00 +16°C° 0 mm 2 mps 665 mmHg 56%
    07:00 +16°C° 0 mm 2 mps 666 mmHg 56%
    08:00 +19°C° 0 mm 3 mps 666 mmHg 48%
    09:00 +24°C° 0 mm 3 mps 667 mmHg 40%
    10:00 +27°C° 0 mm 4 mps 668 mmHg 32%
    11:00 +28°C° 0 mm 3 mps 668 mmHg 29%
    12:00 +30°C° 0 mm 3 mps 667 mmHg 26%
    13:00 +31°C° 0 mm 2 mps 667 mmHg 22%
    14:00 +31°C° 0 mm 2 mps 666 mmHg 23%
    15:00 +30°C° 0 mm 2 mps 666 mmHg 24%
    16:00 +30°C° 0 mm 2 mps 665 mmHg 24%
    17:00 +27°C° 0 mm 1 mps 665 mmHg 28%
    18:00 +24°C° 0 mm 1 mps 665 mmHg 32%
    19:00 +22°C° 0 mm 1 mps 665 mmHg 36%
    20:00 +21°C° 0 mm 1 mps 665 mmHg 36%
    21:00 +18°C° 0 mm 0 mps 665 mmHg 37%
    22:00 +18°C° 0 mm 0 mps 666 mmHg 37%
    23:00 +19°C° 0 mm 1 mps 666 mmHg 38%

    Mañana, 31 Mayo, Domingo

    Tiempo Temperatura Precipitaciones Viento Presión Humedad
    00:00 +19°C° 0 mm 1 mps 665 mmHg 39%
    01:00 +18°C° 0 mm 1 mps 665 mmHg 40%
    02:00 +18°C° 0 mm 1 mps 665 mmHg 43%
    03:00 +16°C° 0 mm 1 mps 665 mmHg 45%
    04:00 +15°C° 0 mm 1 mps 665 mmHg 47%
    05:00 +16°C° 0 mm 2 mps 665 mmHg 49%
    06:00 +16°C° 0 mm 2 mps 666 mmHg 51%
    07:00 +16°C° 0 mm 2 mps 666 mmHg 53%
    08:00 +19°C° 0 mm 2 mps 667 mmHg 48%
    09:00 +24°C° 0 mm 3 mps 667 mmHg 42%
    10:00 +27°C° 0 mm 3 mps 668 mmHg 37%
    11:00 +29°C° 0 mm 3 mps 668 mmHg 33%
    12:00 +30°C° 0 mm 3 mps 668 mmHg 30%
    13:00 +33°C° 0 mm 3 mps 668 mmHg 27%
    14:00 +32°C° 0 mm 2 mps 667 mmHg 28%
    15:00 +31°C° 0 mm 2 mps 666 mmHg 29%
    16:00 +31°C° 0 mm 2 mps 666 mmHg 30%
    17:00 +28°C° 0 mm 1 mps 666 mmHg 35%
    18:00 +26°C° 0 mm 1 mps 666 mmHg 40%
    19:00 +23°C° 0 mm 1 mps 666 mmHg 45%
    20:00 +22°C° 0 mm 1 mps 666 mmHg 46%
    21:00 +22°C° 0 mm 1 mps 666 mmHg 47%
    22:00 +21°C° 0 mm 1 mps 666 mmHg 48%
    23:00 +21°C° 0 mm 1 mps 666 mmHg 47%

    Pasado mañana, 1 Junio, Lunes

    Tiempo Temperatura Precipitaciones Viento Presión Humedad
    00:00 +21°C° 0 mm 1 mps 666 mmHg 46%
    01:00 +21°C° 0 mm 1 mps 667 mmHg 45%
    02:00 +21°C° 0 mm 1 mps 666 mmHg 45%
    03:00 +21°C° 0 mm 1 mps 666 mmHg 46%
    04:00 +21°C° 0 mm 1 mps 666 mmHg 47%
    05:00 +21°C° 0 mm 1 mps 666 mmHg 49%
    06:00 +20°C° 0 mm 2 mps 667 mmHg 51%
    07:00 +19°C° 0 mm 2 mps 667 mmHg 53%
    08:00 +23°C° 0 mm 2 mps 668 mmHg 48%
    09:00 +25°C° 0 mm 3 mps 668 mmHg 43%
    10:00 +28°C° 0 mm 4 mps 668 mmHg 38%
    11:00 +29°C° 0 mm 3 mps 668 mmHg 35%
    12:00 +31°C° 0 mm 3 mps 668 mmHg 32%
    13:00 +33°C° 0 mm 3 mps 667 mmHg 28%
    14:00 +32°C° 0 mm 2 mps 667 mmHg 30%
    15:00 +31°C° 0 mm 2 mps 666 mmHg 31%
    16:00 +31°C° 0 mm 2 mps 666 mmHg 33%
    17:00 +29°C° 0 mm 1 mps 666 mmHg 35%
    18:00 +27°C° 0 mm 1 mps 666 mmHg 38%
    19:00 +26°C° 0 mm 1 mps 666 mmHg 40%
    20:00 +25°C° 0 mm 1 mps 667 mmHg 42%
    21:00 +24°C° 0 mm 1 mps 667 mmHg 45%
    22:00 +21°C° 0 mm 0 mps 667 mmHg 47%
    23:00 +21°C° 0 mm 0 mps 667 mmHg 47%

    2 Junio, Martes

    Tiempo Temperatura Precipitaciones Viento Presión Humedad
    00:00 +21°C° 0 mm 0 mps 667 mmHg 47%
    01:00 +21°C° 0 mm 0 mps 667 mmHg 47%
    02:00 +20°C° 0 mm 0 mps 666 mmHg 50%
    03:00 +21°C° 0 mm 1 mps 666 mmHg 54%
    04:00 +20°C° 0 mm 1 mps 666 mmHg 57%
    05:00 +20°C° 0 mm 1 mps 666 mmHg 58%
    06:00 +20°C° 0 mm 1 mps 666 mmHg 59%
    07:00 +21°C° 0 mm 1 mps 667 mmHg 60%
    08:00 +23°C° 0 mm 2 mps 668 mmHg 52%
    09:00 +26°C° 0 mm 2 mps 668 mmHg 44%
    10:00 +28°C° 0 mm 3 mps 669 mmHg 35%
    11:00 +29°C° 0 mm 3 mps 668 mmHg 33%
    12:00 +30°C° 0 mm 3 mps 668 mmHg 30%
    13:00 +31°C° 0 mm 3 mps 667 mmHg 28%
    14:00 +31°C° 0 mm 3 mps 667 mmHg 28%
    15:00 +31°C° 0 mm 2 mps 666 mmHg 28%
    16:00 +31°C° 0 mm 1 mps 666 mmHg 29%
    17:00 +28°C° 0 mm 1 mps 666 mmHg 33%
    18:00 +24°C° 0 mm 0 mps 666 mmHg 38%
    19:00 +21°C° 0 mm 0 mps 666 mmHg 43%
    20:00 +21°C° 0 mm 0 mps 666 mmHg 45%
    21:00 +20°C° 0 mm 0 mps 666 mmHg 47%
    22:00 +19°C° 0 mm 0 mps 666 mmHg 49%
    23:00 +19°C° 0 mm 0 mps 666 mmHg 50%

    3 Junio, Miércoles

    Tiempo Temperatura Precipitaciones Viento Presión Humedad
    00:00 +18°C° 0 mm 0 mps 665 mmHg 52%
    01:00 +20°C° 0 mm 1 mps 665 mmHg 53%
    02:00 +17°C° 0 mm 0 mps 665 mmHg 55%
    03:00 +17°C° 0 mm 0 mps 665 mmHg 57%
    04:00 +16°C° 0 mm 0 mps 664 mmHg 59%
    05:00 +18°C° 0 mm 1 mps 665 mmHg 59%
    06:00 +18°C° 0 mm 1 mps 665 mmHg 58%
    07:00 +19°C° 0 mm 1 mps 666 mmHg 58%
    08:00 +22°C° 0 mm 1 mps 666 mmHg 51%
    09:00 +25°C° 0 mm 2 mps 667 mmHg 43%
    10:00 +28°C° 0 mm 2 mps 668 mmHg 35%
    11:00 +30°C° 0 mm 2 mps 668 mmHg 32%
    12:00 +31°C° 0 mm 2 mps 667 mmHg 29%
    13:00 +34°C° 0 mm 2 mps 667 mmHg 26%
    14:00 +32°C° 0 mm 1 mps 666 mmHg 29%
    15:00 +31°C° 0 mm 1 mps 666 mmHg 31%
    16:00 +30°C° 0 mm 1 mps 665 mmHg 34%
    17:00 +29°C° 0 mm 1 mps 665 mmHg 36%
    18:00 +27°C° 0 mm 1 mps 665 mmHg 37%
    19:00 +24°C° 0 mm 0 mps 666 mmHg 39%
    20:00 +23°C° 0 mm 0 mps 666 mmHg 42%
    21:00 +21°C° 0 mm 0 mps 665 mmHg 45%
    22:00 +20°C° 0 mm 0 mps 665 mmHg 48%
    23:00 +22°C° 0 mm 1 mps 665 mmHg 50%

    4 Junio, Jueves

    Tiempo Temperatura Precipitaciones Viento Presión Humedad
    00:00 +21°C° 0 mm 1 mps 665 mmHg 53%
    01:00 +21°C° 0 mm 1 mps 665 mmHg 55%
    02:00 +20°C° 0 mm 1 mps 665 mmHg 59%
    03:00 +19°C° 0 mm 1 mps 665 mmHg 63%
    04:00 +18°C° 0 mm 1 mps 664 mmHg 67%
    05:00 +19°C° 0 mm 1 mps 665 mmHg 65%
    06:00 +19°C° 0 mm 1 mps 666 mmHg 62%
    07:00 +20°C° 0 mm 1 mps 666 mmHg 60%
    08:00 +21°C° 0 mm 2 mps 667 mmHg 51%
    09:00 +25°C° 0 mm 2 mps 668 mmHg 42%
    10:00 +28°C° 0 mm 2 mps 668 mmHg 33%
    11:00 +30°C° 0 mm 2 mps 668 mmHg 31%
    12:00 +31°C° 0 mm 2 mps 668 mmHg 29%
    13:00 +34°C° 0 mm 2 mps 667 mmHg 27%
    14:00 +32°C° 0 mm 1 mps 667 mmHg 28%
    15:00 +32°C° 0 mm 1 mps 666 mmHg 29%
    16:00 +31°C° 0 mm 1 mps 666 mmHg 31%
    17:00 +29°C° 0 mm 1 mps 666 mmHg 35%
    18:00 +27°C° 0 mm 1 mps 666 mmHg 39%
    19:00 +23°C° 0 mm 0 mps 666 mmHg 43%
    20:00 +22°C° 0 mm 0 mps 666 mmHg 46%
    21:00 +21°C° 0 mm 0 mps 666 mmHg 49%
    22:00 +20°C° 0 mm 0 mps 666 mmHg 51%
    23:00 +21°C° 0 mm 1 mps 666 mmHg 55%
    Mostrar más